User: anonymous   Login
Location: Unspecified
(0.0000°N, 0.0000°E)
Time: 07:11:09
(UTC+00:00)
Language:

WGS 6 (USA 244) - Orbit

View from above orbital plane
View from above orbital plane
View from above satellite
View from above satellite

Ground track
Ground track

The orbit data is extracted from the following two-line orbital elements,

1 39222U 13041A   18201.70927717 0.00000000  00000-0  00000-0 0    02
2 39222   0.0250  58.5509 0002933  17.6945 342.3411  1.00270000    06
Epoch (UTC): 20 July 2018 17:01:21
Eccentricity: 0.0002933
inclination: 0.0250°
perigee height: 35774 km
apogee height: 35799 km
right ascension of ascending node: 58.5509°
argument of perigee: 17.6945°
revolutions per day: 1.00270000
mean anomaly at epoch: 342.3411°
orbit number at epoch: 0

The dashed part of the orbit path shows where the satellite is in the earth's shadow,  

DLR